Location: ?
(35.4554°N, 139.3092°E)
Time: 22:14:01
(UTC+00:00)

Cosmos 1605 Rocket - Pass Details

Date: 21 April 2021
Orbit: 944 x 1006 km, 82.9° (Epoch: 10 May)

Event Time Altitude Azimuth Distance (km) Brightness Sun altitude
Rises 18:02:35 0° 351° (N) 3,624 7.3 -22.8°
Reaches altitude 10° 18:05:04 10° 350° (N) 2,680 6.6 -22.4°
Maximum altitude 18:11:11 77° 266° (W) 986 3.8 -21.3°
Enters shadow 18:16:18 16° 182° (S) 2,311 5.6 -20.4°
